Time,TemperatureF,DewpointF,PressureIn,WindDirection,WindDirectionDegrees,WindSpeedMPH,WindSpeedGustMPH,Humidity,HourlyPrecipIn,Conditions,Clouds,dailyrainin,SoftwareType,DateUTC
2013-05-17 00:08:00,54.2,46.0,29.95,NE,56,0.0,-999.0,73,-99.99,,,0.00,weatherlink.com 1.10,2013-05-17 07:08:00,
2013-05-17 00:23:00,53.7,46.0,29.95,NE,56,0.0,-999.0,75,-99.99,,,0.00,weatherlink.com 1.10,2013-05-17 07:23:00,
2013-05-17 00:38:00,52.9,46.0,29.95,NE,56,0.0,-999.0,77,-99.99,,,0.00,weatherlink.com 1.10,2013-05-17 07:38:00,
2013-05-17 00:53:00,52.1,46.0,29.95,NE,56,0.0,-999.0,79,-99.99,,,0.00,weatherlink.com 1.10,2013-05-17 07:53:00,
2013-05-17 01:08:00,51.4,46.0,29.95,NE,56,0.0,-999.0,81,-99.99,,,0.00,weatherlink.com 1.10,2013-05-17 08:08:00,
2013-05-17 01:23:00,50.8,46.0,29.95,NE,56,0.0,-999.0,82,-99.99,,,0.00,weatherlink.com 1.10,2013-05-17 08:23:00,
2013-05-17 01:38:00,50.4,45.0,29.95,West,280,0.0,-999.0,83,-99.99,,,0.00,weatherlink.com 1.10,2013-05-17 08:38:00,
2013-05-17 01:53:00,50.2,45.0,29.95,WSW,244,0.0,-999.0,83,-99.99,,,0.00,weatherlink.com 1.10,2013-05-17 08:53:00,
2013-05-17 02:08:00,50.0,45.0,29.95,WSW,244,0.0,-999.0,83,-99.99,,,0.00,weatherlink.com 1.10,2013-05-17 09:08:00,
2013-05-17 02:23:00,49.6,45.0,29.95,WSW,244,0.0,-999.0,84,-99.99,,,0.00,weatherlink.com 1.10,2013-05-17 09:23:00,
2013-05-17 02:38:00,49.2,45.0,29.94,WSW,244,0.0,-999.0,85,-99.99,,,0.00,weatherlink.com 1.10,2013-05-17 09:38:00,
2013-05-17 02:53:00,49.1,45.0,29.94,WSW,244,0.0,-999.0,85,-99.99,,,0.00,weatherlink.com 1.10,2013-05-17 09:53:00,
2013-05-17 03:08:00,49.5,45.0,29.94,ESE,113,0.0,-999.0,84,-99.99,,,0.00,weatherlink.com 1.10,2013-05-17 10:08:00,
2013-05-17 03:23:00,50.5,45.0,29.94,ESE,113,0.0,-999.0,81,-99.99,,,0.00,weatherlink.com 1.10,2013-05-17 10:23:00,
2013-05-17 03:38:00,50.5,45.0,29.94,ESE,113,0.0,-999.0,82,-99.99,,,0.00,weatherlink.com 1.10,2013-05-17 10:38:00,
2013-05-17 03:53:00,50.3,45.0,29.94,ESE,113,0.0,-999.0,82,-99.99,,,0.00,weatherlink.com 1.10,2013-05-17 10:53:00,
2013-05-17 04:08:00,50.0,45.0,29.94,ESE,113,0.0,-999.0,82,-99.99,,,0.00,weatherlink.com 1.10,2013-05-17 11:08:00,
2013-05-17 04:23:00,49.6,45.0,29.94,ESE,113,0.0,-999.0,83,-99.99,,,0.00,weatherlink.com 1.10,2013-05-17 11:23:00,
2013-05-17 04:38:00,49.1,45.0,29.95,ESE,113,0.0,-999.0,84,-99.99,,,0.00,weatherlink.com 1.10,2013-05-17 11:38:00,
2013-05-17 04:53:00,48.6,44.0,29.95,SW,221,0.0,-999.0,85,-99.99,,,0.00,weatherlink.com 1.10,2013-05-17 11:53:00,
2013-05-17 05:08:00,48.2,44.0,29.95,SW,221,0.0,-999.0,85,-99.99,,,0.00,weatherlink.com 1.10,2013-05-17 12:08:00,
2013-05-17 05:23:00,47.6,44.0,29.95,SW,221,0.0,-999.0,86,-99.99,,,0.00,weatherlink.com 1.10,2013-05-17 12:23:00,
2013-05-17 05:38:00,47.1,44.0,29.95,SW,221,0.0,-999.0,87,-99.99,,,0.00,weatherlink.com 1.10,2013-05-17 12:38:00,
2013-05-17 05:53:00,46.7,43.0,29.95,SW,221,0.0,-999.0,88,-99.99,,,0.00,weatherlink.com 1.10,2013-05-17 12:53:00,
2013-05-17 06:08:00,46.3,43.0,29.95,SW,221,0.0,-999.0,88,-99.99,,,0.00,weatherlink.com 1.10,2013-05-17 13:08:00,
2013-05-17 06:23:00,46.0,43.0,29.96,SW,221,0.0,-999.0,90,-99.99,,,0.00,weatherlink.com 1.10,2013-05-17 13:23:00,
2013-05-17 06:38:00,45.9,43.0,29.96,SW,221,0.0,-999.0,90,-99.99,,,0.00,weatherlink.com 1.10,2013-05-17 13:38:00,
2013-05-17 06:53:00,45.8,43.0,29.96,SW,221,0.0,-999.0,91,-99.99,,,0.00,weatherlink.com 1.10,2013-05-17 13:53:00,
2013-05-17 07:09:00,45.9,44.0,29.96,SW,221,0.0,-999.0,91,-99.99,,,0.00,weatherlink.com 1.10,2013-05-17 14:09:00,
2013-05-17 07:24:00,46.5,45.0,29.97,SW,221,0.0,-999.0,93,-99.99,,,0.00,weatherlink.com 1.10,2013-05-17 14:24:00,
2013-05-17 07:39:00,47.5,46.0,29.98,SW,221,0.0,-999.0,94,-99.99,,,0.00,weatherlink.com 1.10,2013-05-17 14:39:00,
2013-05-17 07:54:00,49.0,47.0,29.98,SW,221,0.0,-999.0,93,-99.99,,,0.00,weatherlink.com 1.10,2013-05-17 14:54:00,
2013-05-17 08:09:00,50.3,47.0,29.99,East,80,0.0,-999.0,88,-99.99,,,0.00,weatherlink.com 1.10,2013-05-17 15:09:00,
2013-05-17 08:24:00,52.1,48.0,29.98,SSE,163,1.0,-999.0,87,-99.99,,,0.00,weatherlink.com 1.10,2013-05-17 15:24:00,
2013-05-17 08:39:00,54.0,49.0,29.98,South,184,0.0,-999.0,82,-99.99,,,0.00,weatherlink.com 1.10,2013-05-17 15:39:00,
2013-05-17 08:54:00,55.9,50.0,29.99,SSE,154,0.0,-999.0,79,-99.99,,,0.00,weatherlink.com 1.10,2013-05-17 15:54:00,
2013-05-17 09:09:00,59.0,50.0,29.99,ENE,71,0.0,-999.0,72,-99.99,,,0.00,weatherlink.com 1.10,2013-05-17 16:09:00,
2013-05-17 09:24:00,62.0,50.0,29.99,ESE,105,0.0,-999.0,66,-99.99,,,0.00,weatherlink.com 1.10,2013-05-17 16:24:00,
2013-05-17 09:39:00,63.7,51.0,29.99,SSW,202,1.0,-999.0,63,-99.99,,,0.00,weatherlink.com 1.10,2013-05-17 16:39:00,
2013-05-17 09:54:00,65.4,52.0,29.99,South,181,0.0,-999.0,62,-99.99,,,0.00,weatherlink.com 1.10,2013-05-17 16:54:00,
2013-05-17 10:09:00,66.1,52.0,29.98,ENE,77,0.0,-999.0,60,-99.99,,,0.00,weatherlink.com 1.10,2013-05-17 17:09:00,
2013-05-17 10:24:00,66.5,52.0,29.98,SE,134,0.0,-999.0,60,-99.99,,,0.00,weatherlink.com 1.10,2013-05-17 17:24:00,
2013-05-17 10:39:00,67.1,53.0,29.99,SW,221,2.0,-999.0,60,-99.99,,,0.00,weatherlink.com 1.10,2013-05-17 17:39:00,
2013-05-17 10:54:00,69.2,54.0,29.99,SSE,154,0.0,-999.0,58,-99.99,,,0.00,weatherlink.com 1.10,2013-05-17 17:54:00,
2013-05-17 11:09:00,69.8,54.0,29.99,East,98,1.0,-999.0,57,-99.99,,,0.00,weatherlink.com 1.10,2013-05-17 18:09:00,
2013-05-17 11:24:00,71.1,51.0,29.98,NE,44,0.0,-999.0,49,-99.99,,,0.00,weatherlink.com 1.10,2013-05-17 18:24:00,
2013-05-17 11:39:00,72.2,46.0,29.98,SE,133,0.0,-999.0,40,-99.99,,,0.00,weatherlink.com 1.10,2013-05-17 18:39:00,
2013-05-17 11:54:00,74.0,47.0,29.99,NE,49,1.0,-999.0,38,-99.99,,,0.00,weatherlink.com 1.10,2013-05-17 18:54:00,
2013-05-17 12:09:00,74.6,49.0,29.99,SW,232,0.0,-999.0,41,-99.99,,,0.00,weatherlink.com 1.10,2013-05-17 19:09:00,
2013-05-17 12:24:00,74.6,52.0,29.98,SW,232,0.0,-999.0,46,-99.99,,,0.00,weatherlink.com 1.10,2013-05-17 19:24:00,
2013-05-17 12:39:00,75.1,52.0,29.98,South,177,3.0,-999.0,44,-99.99,,,0.00,weatherlink.com 1.10,2013-05-17 19:39:00,
2013-05-17 12:54:00,75.2,52.0,29.98,South,184,2.0,-999.0,45,-99.99,,,0.00,weatherlink.com 1.10,2013-05-17 19:54:00,
2013-05-17 13:10:00,76.4,53.0,29.98,SE,141,3.0,-999.0,45,-99.99,,,0.00,weatherlink.com 1.10,2013-05-17 20:10:00,
2013-05-17 13:25:00,74.4,53.0,29.99,ESE,121,1.0,-999.0,48,-99.99,,,0.00,weatherlink.com 1.10,2013-05-17 20:25:00,
2013-05-17 13:40:00,72.6,53.0,29.99,SE,130,0.0,-999.0,50,-99.99,,,0.00,weatherlink.com 1.10,2013-05-17 20:40:00,
2013-05-17 13:55:00,72.1,53.0,29.99,WSW,256,3.0,-999.0,51,-99.99,,,0.00,weatherlink.com 1.10,2013-05-17 20:55:00,
2013-05-17 14:10:00,73.2,53.0,29.98,SSE,153,1.0,-999.0,50,-99.99,,,0.00,weatherlink.com 1.10,2013-05-17 21:10:00,
2013-05-17 14:25:00,72.9,53.0,29.99,South,171,1.0,-999.0,49,-99.99,,,0.00,weatherlink.com 1.10,2013-05-17 21:25:00,
2013-05-17 14:40:00,72.7,51.0,29.99,SE,143,1.0,-999.0,46,-99.99,,,0.00,weatherlink.com 1.10,2013-05-17 21:40:00,
2013-05-17 14:55:00,72.3,51.0,29.99,SSE,155,0.0,-999.0,47,-99.99,,,0.00,weatherlink.com 1.10,2013-05-17 21:55:00,
2013-05-17 15:10:00,72.1,50.0,29.99,SSW,196,3.0,-999.0,46,-99.99,,,0.00,weatherlink.com 1.10,2013-05-17 22:10:00,
2013-05-17 15:25:00,72.0,49.0,29.99,West,265,1.0,-999.0,44,-99.99,,,0.00,weatherlink.com 1.10,2013-05-17 22:25:00,
2013-05-17 15:40:00,72.1,49.0,29.99,West,279,2.0,-999.0,44,-99.99,,,0.00,weatherlink.com 1.10,2013-05-17 22:40:00,
2013-05-17 15:55:00,72.7,50.0,29.99,NNW,329,2.0,-999.0,45,-99.99,,,0.00,weatherlink.com 1.10,2013-05-17 22:55:00,
2013-05-17 16:10:00,72.7,50.0,29.99,West,267,0.0,-999.0,45,-99.99,,,0.00,weatherlink.com 1.10,2013-05-17 23:10:00,
2013-05-17 16:25:00,72.8,51.0,29.99,ENE,71,0.0,-999.0,47,-99.99,,,0.00,weatherlink.com 1.10,2013-05-17 23:25:00,
2013-05-17 16:40:00,71.2,50.0,29.99,South,169,2.0,-999.0,48,-99.99,,,0.00,weatherlink.com 1.10,2013-05-17 23:40:00,
2013-05-17 16:55:00,69.9,51.0,29.99,SSE,160,2.0,-999.0,52,-99.99,,,0.00,weatherlink.com 1.10,2013-05-17 23:55:00,
2013-05-17 17:10:00,68.7,50.0,29.99,SSE,168,1.0,-999.0,52,-99.99,,,0.00,weatherlink.com 1.10,2013-05-18 00:10:00,
2013-05-17 17:25:00,69.2,50.0,29.99,SSW,213,0.0,-999.0,50,-99.99,,,0.00,weatherlink.com 1.10,2013-05-18 00:25:00,
2013-05-17 17:40:00,68.3,48.0,29.99,ESE,109,1.0,-999.0,49,-99.99,,,0.00,weatherlink.com 1.10,2013-05-18 00:40:00,
2013-05-17 17:55:00,67.0,48.0,29.99,ESE,117,1.0,-999.0,51,-99.99,,,0.00,weatherlink.com 1.10,2013-05-18 00:55:00,
2013-05-17 18:10:00,66.4,48.0,29.99,SSE,151,3.0,-999.0,51,-99.99,,,0.00,weatherlink.com 1.10,2013-05-18 01:10:00,
2013-05-17 18:25:00,64.4,48.0,29.99,SE,126,1.0,-999.0,55,-99.99,,,0.00,weatherlink.com 1.10,2013-05-18 01:25:00,
2013-05-17 18:55:00,61.6,47.0,29.99,ESE,122,0.0,-999.0,60,-99.99,,,0.00,weatherlink.com 1.10,2013-05-18 01:55:00,
2013-05-17 19:10:00,60.7,46.0,30.00,ESE,105,1.0,-999.0,59,-99.99,,,0.00,weatherlink.com 1.10,2013-05-18 02:10:00,
2013-05-17 19:25:00,60.0,46.0,30.00,SE,124,0.0,-999.0,61,-99.99,,,0.00,weatherlink.com 1.10,2013-05-18 02:25:00,
2013-05-17 19:40:00,59.1,45.0,30.01,SE,127,0.0,-999.0,61,-99.99,,,0.00,weatherlink.com 1.10,2013-05-18 02:40:00,
2013-05-17 19:55:00,58.1,46.0,30.01,SE,126,0.0,-999.0,64,-99.99,,,0.00,weatherlink.com 1.10,2013-05-18 02:55:00,
2013-05-17 20:10:00,57.1,46.0,30.02,SE,126,0.0,-999.0,66,-99.99,,,0.00,weatherlink.com 1.10,2013-05-18 03:10:00,
2013-05-17 20:25:00,56.0,46.0,30.02,SE,126,0.0,-999.0,68,-99.99,,,0.00,weatherlink.com 1.10,2013-05-18 03:25:00,
2013-05-17 20:40:00,55.1,46.0,30.02,SE,126,0.0,-999.0,71,-99.99,,,0.00,weatherlink.com 1.10,2013-05-18 03:40:00,
2013-05-17 20:55:00,53.9,46.0,30.03,SE,126,0.0,-999.0,74,-99.99,,,0.00,weatherlink.com 1.10,2013-05-18 03:55:00,
2013-05-17 21:10:00,52.7,45.0,30.03,SE,126,0.0,-999.0,76,-99.99,,,0.00,weatherlink.com 1.10,2013-05-18 04:10:00,
2013-05-17 21:25:00,51.7,45.0,30.04,SE,126,0.0,-999.0,77,-99.99,,,0.00,weatherlink.com 1.10,2013-05-18 04:25:00,
2013-05-17 21:40:00,50.8,44.0,30.03,SE,126,0.0,-999.0,78,-99.99,,,0.00,weatherlink.com 1.10,2013-05-18 04:40:00,
2013-05-17 21:55:00,49.9,44.0,30.03,SE,126,0.0,-999.0,79,-99.99,,,0.00,weatherlink.com 1.10,2013-05-18 04:55:00,
2013-05-17 22:10:00,49.1,44.0,30.04,SE,126,0.0,-999.0,81,-99.99,,,0.00,weatherlink.com 1.10,2013-05-18 05:10:00,
2013-05-17 22:25:00,48.5,43.0,30.04,SE,126,0.0,-999.0,82,-99.99,,,0.00,weatherlink.com 1.10,2013-05-18 05:25:00,
2013-05-17 22:40:00,47.8,43.0,30.05,SE,126,0.0,-999.0,83,-99.99,,,0.00,weatherlink.com 1.10,2013-05-18 05:40:00,
2013-05-17 22:55:00,47.2,43.0,30.05,SE,126,0.0,-999.0,84,-99.99,,,0.00,weatherlink.com 1.10,2013-05-18 05:55:00,
2013-05-17 23:10:00,46.8,43.0,30.04,SE,126,0.0,-999.0,85,-99.99,,,0.00,weatherlink.com 1.10,2013-05-18 06:10:00,
2013-05-17 23:25:00,46.5,43.0,30.04,SE,126,0.0,-999.0,86,-99.99,,,0.00,weatherlink.com 1.10,2013-05-18 06:25:00,
2013-05-17 23:40:00,46.1,42.0,30.04,SE,126,0.0,-999.0,86,-99.99,,,0.00,weatherlink.com 1.10,2013-05-18 06:40:00,
2013-05-17 23:55:00,45.8,42.0,30.04,SE,126,0.0,-999.0,87,-99.99,,,0.00,weatherlink.com 1.10,2013-05-18 06:55:00,